Time,TemperatureF,DewpointF,PressureIn,WindDirection,WindDirectionDegrees,WindSpeedMPH,WindSpeedGustMPH,Humidity,HourlyPrecipIn,Conditions,Clouds,dailyrainin,SoftwareType,DateUTC
2013-02-17 00:14:00,30.7,19.6,30.26,ESE,117,0.0,1.1,63,0.00,,,0.00,VWS V14.01,2013-02-17 06:14:00,
2013-02-17 00:29:00,30.8,19.7,30.26,SSW,201,0.0,2.3,63,0.00,,,0.00,VWS V14.01,2013-02-17 06:29:00,
2013-02-17 00:44:00,31.2,19.7,30.25,South,171,2.3,3.4,62,0.00,,,0.00,VWS V14.01,2013-02-17 06:44:00,
2013-02-17 00:59:00,31.4,19.1,30.25,SE,141,0.0,4.6,60,0.00,,,0.00,VWS V14.01,2013-02-17 06:59:00,
2013-02-17 01:14:00,31.7,19.0,30.25,SE,128,2.3,3.4,59,0.00,,,0.00,VWS V14.01,2013-02-17 07:14:00,
2013-02-17 01:29:00,31.7,19.4,30.25,South,177,0.0,2.3,60,0.00,,,0.00,VWS V14.01,2013-02-17 07:29:00,
2013-02-17 01:44:00,31.8,19.1,30.25,SSE,168,1.1,3.4,59,0.00,,,0.00,VWS V14.01,2013-02-17 07:44:00,
2013-02-17 01:59:00,32.0,18.9,30.25,SSW,211,0.0,2.3,58,0.00,,,0.00,VWS V14.01,2013-02-17 07:59:00,
2013-02-17 02:14:00,32.1,19.4,30.25,SE,139,0.0,3.4,59,0.00,,,0.00,VWS V14.01,2013-02-17 08:14:00,
2013-02-17 02:29:00,32.0,19.7,30.25,SW,233,1.1,3.4,60,0.00,,,0.00,VWS V14.01,2013-02-17 08:29:00,
2013-02-17 02:44:00,32.1,19.8,30.25,SSE,158,0.0,3.4,60,0.00,,,0.00,VWS V14.01,2013-02-17 08:44:00,
2013-02-17 02:59:00,32.0,20.1,30.25,SSW,210,0.0,3.4,61,0.00,,,0.00,VWS V14.01,2013-02-17 08:59:00,
2013-02-17 03:14:00,32.1,20.2,30.24,South,174,1.1,2.3,61,0.00,,,0.00,VWS V14.01,2013-02-17 09:14:00,
2013-02-17 03:29:00,32.2,20.7,30.24,SSE,163,0.0,2.3,62,0.00,,,0.00,VWS V14.01,2013-02-17 09:29:00,
2013-02-17 03:44:00,32.4,20.5,30.24,SSE,167,2.3,4.6,61,0.00,,,0.00,VWS V14.01,2013-02-17 09:44:00,
2013-02-17 03:59:00,32.5,20.9,30.24,SE,144,1.1,3.4,62,0.00,,,0.00,VWS V14.01,2013-02-17 09:59:00,
2013-02-17 04:14:00,32.6,20.7,30.24,SSW,208,0.0,3.4,61,0.00,,,0.00,VWS V14.01,2013-02-17 10:14:00,
2013-02-17 05:29:00,32.9,20.9,30.25,South,190,0.0,3.4,61,0.00,,,0.00,VWS V14.01,2013-02-17 11:29:00,
2013-02-17 05:44:00,32.9,20.9,30.26,South,178,3.4,3.4,61,0.00,,,0.00,VWS V14.01,2013-02-17 11:44:00,
2013-02-17 05:59:00,32.9,21.3,30.25,ESE,120,0.0,3.4,62,0.00,,,0.00,VWS V14.01,2013-02-17 11:59:00,
2013-02-17 06:14:00,32.9,21.3,30.26,South,174,1.1,3.4,62,0.00,,,0.00,VWS V14.01,2013-02-17 12:14:00,
2013-02-17 06:29:00,32.9,21.7,30.25,SE,141,1.1,5.8,63,0.00,,,0.00,VWS V14.01,2013-02-17 12:29:00,
2013-02-17 06:44:00,32.8,22.0,30.25,SE,132,0.0,3.4,64,0.00,,,0.00,VWS V14.01,2013-02-17 12:44:00,
2013-02-17 06:59:00,32.7,22.2,30.25,SE,142,0.0,5.8,65,0.00,,,0.00,VWS V14.01,2013-02-17 12:59:00,
2013-02-17 07:14:00,32.8,22.7,30.27,SW,217,1.1,8.1,66,0.00,,,0.00,VWS V14.01,2013-02-17 13:14:00,
2013-02-17 07:29:00,33.1,23.0,30.26,ESE,113,1.1,5.8,66,0.00,,,0.00,VWS V14.01,2013-02-17 13:29:00,
2013-02-17 07:44:00,33.6,23.1,30.26,South,174,0.0,4.6,65,0.00,,,0.00,VWS V14.01,2013-02-17 13:44:00,
2013-02-17 07:59:00,34.2,22.9,30.27,SW,215,0.0,4.6,63,0.00,,,0.00,VWS V14.01,2013-02-17 13:59:00,
2013-02-17 08:14:00,34.9,22.4,30.27,South,173,0.0,9.2,60,0.00,,,0.00,VWS V14.01,2013-02-17 14:14:00,
2013-02-17 08:29:00,35.6,22.7,30.28,SSW,200,2.3,9.2,59,0.00,,,0.00,VWS V14.01,2013-02-17 14:29:00,
2013-02-17 08:44:00,36.5,23.1,30.28,SE,129,1.1,10.3,58,0.00,,,0.00,VWS V14.01,2013-02-17 14:44:00,
2013-02-17 08:59:00,37.6,23.3,30.28,South,182,2.3,8.1,56,0.00,,,0.00,VWS V14.01,2013-02-17 14:59:00,
2013-02-17 09:14:00,38.2,23.0,30.28,SW,235,2.3,9.2,54,0.00,,,0.00,VWS V14.01,2013-02-17 15:14:00,
2013-02-17 09:29:00,38.6,23.0,30.28,SSE,159,1.1,6.9,53,0.00,,,0.00,VWS V14.01,2013-02-17 15:29:00,
2013-02-17 09:44:00,39.4,22.8,30.28,SSE,148,2.3,9.2,51,0.00,,,0.00,VWS V14.01,2013-02-17 15:44:00,
2013-02-17 09:59:00,41.0,23.3,30.28,South,170,3.4,12.6,49,0.00,,,0.00,VWS V14.01,2013-02-17 15:59:00,
2013-02-17 10:14:00,41.9,22.6,30.28,South,174,4.6,9.2,46,0.00,,,0.00,VWS V14.01,2013-02-17 16:14:00,
2013-02-17 10:29:00,42.8,22.4,30.27,SE,126,2.3,12.6,44,0.00,,,0.00,VWS V14.01,2013-02-17 16:29:00,
2013-02-17 10:44:00,44.0,22.4,30.27,ENE,66,2.3,9.2,42,0.00,,,0.00,VWS V14.01,2013-02-17 16:44:00,
2013-02-17 10:59:00,44.8,22.0,30.26,ESE,113,1.1,10.3,40,0.00,,,0.00,VWS V14.01,2013-02-17 16:59:00,
2013-02-17 11:14:00,46.0,21.8,30.26,South,191,6.9,12.6,38,0.00,,,0.00,VWS V14.01,2013-02-17 17:14:00,
2013-02-17 11:29:00,46.4,22.2,30.25,East,79,4.6,13.8,38,0.00,,,0.00,VWS V14.01,2013-02-17 17:29:00,
2013-02-17 11:44:00,47.1,22.8,30.24,SSE,154,5.8,12.6,38,0.00,,,0.00,VWS V14.01,2013-02-17 17:44:00,
2013-02-17 11:59:00,47.9,23.5,30.23,South,183,2.3,14.9,38,0.00,,,0.00,VWS V14.01,2013-02-17 17:59:00,
2013-02-17 12:14:00,49.3,24.1,30.22,SE,136,1.1,10.3,37,0.00,,,0.00,VWS V14.01,2013-02-17 18:14:00,
2013-02-17 12:29:00,49.9,24.7,30.21,WSW,239,1.1,12.6,37,0.00,,,0.00,VWS V14.01,2013-02-17 18:29:00,
2013-02-17 12:44:00,50.6,26.0,30.20,ESE,108,6.9,16.1,38,0.00,,,0.00,VWS V14.01,2013-02-17 18:44:00,
2013-02-17 12:59:00,51.3,26.6,30.19,East,94,6.9,9.2,38,0.00,,,0.00,VWS V14.01,2013-02-17 18:59:00,
2013-02-17 13:14:00,51.6,27.5,30.18,SE,140,1.1,11.5,39,0.00,,,0.00,VWS V14.01,2013-02-17 19:14:00,
2013-02-17 13:29:00,52.1,27.3,30.17,South,186,3.4,12.6,38,0.00,,,0.00,VWS V14.01,2013-02-17 19:29:00,
2013-02-17 13:44:00,52.2,27.4,30.16,SSW,205,2.3,13.8,38,0.00,,,0.00,VWS V14.01,2013-02-17 19:44:00,
2013-02-17 13:59:00,52.9,28.0,30.16,ESE,109,1.1,10.3,38,0.00,,,0.00,VWS V14.01,2013-02-17 19:59:00,
2013-02-17 14:14:00,53.5,28.5,30.15,ESE,109,2.3,11.5,38,0.00,,,0.00,VWS V14.01,2013-02-17 20:14:00,
2013-02-17 14:29:00,54.1,27.8,30.14,South,191,4.6,10.3,36,0.00,,,0.00,VWS V14.01,2013-02-17 20:29:00,
2013-02-17 14:44:00,54.3,27.9,30.14,South,176,2.3,9.2,36,0.00,,,0.00,VWS V14.01,2013-02-17 20:44:00,
2013-02-17 14:59:00,54.5,28.8,30.13,SSW,198,2.3,13.8,37,0.00,,,0.00,VWS V14.01,2013-02-17 20:59:00,
2013-02-17 15:14:00,55.1,29.3,30.13,ESE,103,3.4,10.3,37,0.00,,,0.00,VWS V14.01,2013-02-17 21:14:00,
2013-02-17 15:29:00,55.0,28.6,30.12,ESE,108,2.3,16.1,36,0.00,,,0.00,VWS V14.01,2013-02-17 21:29:00,
2013-02-17 15:44:00,55.2,29.4,30.11,SSW,205,2.3,9.2,37,0.00,,,0.00,VWS V14.01,2013-02-17 21:44:00,
2013-02-17 15:59:00,55.7,29.2,30.11,South,179,8.1,11.5,36,0.00,,,0.00,VWS V14.01,2013-02-17 21:59:00,
2013-02-17 16:14:00,55.8,29.3,30.11,SSE,154,1.1,11.5,36,0.00,,,0.00,VWS V14.01,2013-02-17 22:14:00,
2013-02-17 16:29:00,55.4,29.6,30.11,SSE,155,1.1,13.8,37,0.00,,,0.00,VWS V14.01,2013-02-17 22:29:00,
2013-02-17 16:44:00,55.0,29.9,30.10,SW,226,4.6,9.2,38,0.00,,,0.00,VWS V14.01,2013-02-17 22:44:00,
2013-02-17 16:59:00,54.5,30.1,30.10,SSE,150,3.4,9.2,39,0.00,,,0.00,VWS V14.01,2013-02-17 22:59:00,
2013-02-17 17:14:00,54.0,30.2,30.11,South,184,8.1,8.1,40,0.00,,,0.00,VWS V14.01,2013-02-17 23:14:00,
2013-02-17 17:29:00,53.3,30.8,30.10,South,176,3.4,12.6,42,0.00,,,0.00,VWS V14.01,2013-02-17 23:29:00,
2013-02-17 17:44:00,52.5,31.2,30.11,SSW,205,1.1,8.1,44,0.00,,,0.00,VWS V14.01,2013-02-17 23:44:00,
2013-02-17 17:59:00,51.6,31.5,30.11,SSW,201,1.1,4.6,46,0.00,,,0.00,VWS V14.01,2013-02-17 23:59:00,
2013-02-17 18:14:00,51.0,31.5,30.12,SSW,205,2.3,8.1,47,0.00,,,0.00,VWS V14.01,2013-02-18 00:14:00,
2013-02-17 18:29:00,50.6,31.6,30.11,SSW,194,0.0,6.9,48,0.00,,,0.00,VWS V14.01,2013-02-18 00:29:00,
2013-02-17 18:44:00,50.1,31.7,30.11,SSE,168,4.6,4.6,49,0.00,,,0.00,VWS V14.01,2013-02-18 00:44:00,
2013-02-17 18:59:00,49.5,32.1,30.11,ESE,103,1.1,5.8,51,0.00,,,0.00,VWS V14.01,2013-02-18 00:59:00,
2013-02-17 19:14:00,48.6,31.8,30.11,ESE,123,2.3,3.4,52,0.00,,,0.00,VWS V14.01,2013-02-18 01:14:00,
2013-02-17 19:29:00,48.2,31.4,30.11,SSW,204,1.1,5.8,52,0.00,,,0.00,VWS V14.01,2013-02-18 01:29:00,
2013-02-17 19:44:00,48.0,31.2,30.10,SE,143,1.1,3.4,52,0.00,,,0.00,VWS V14.01,2013-02-18 01:44:00,
2013-02-17 19:59:00,48.0,30.3,30.11,SSE,148,0.0,5.8,50,0.00,,,0.00,VWS V14.01,2013-02-18 01:59:00,
2013-02-17 20:14:00,47.8,30.1,30.11,South,172,1.1,5.8,50,0.00,,,0.00,VWS V14.01,2013-02-18 02:14:00,
2013-02-17 20:29:00,48.0,29.8,30.11,SSE,153,1.1,5.8,49,0.00,,,0.00,VWS V14.01,2013-02-18 02:29:00,
2013-02-17 20:44:00,47.9,29.7,30.11,SSE,153,1.1,6.9,49,0.00,,,0.00,VWS V14.01,2013-02-18 02:44:00,
2013-02-17 20:59:00,47.8,30.1,30.11,ESE,119,2.3,10.3,50,0.00,,,0.00,VWS V14.01,2013-02-18 02:59:00,
2013-02-17 21:14:00,47.5,29.8,30.11,ESE,108,3.4,9.2,50,0.00,,,0.00,VWS V14.01,2013-02-18 03:14:00,
2013-02-17 21:29:00,47.4,30.2,30.10,SE,131,1.1,6.9,51,0.00,,,0.00,VWS V14.01,2013-02-18 03:29:00,
2013-02-17 21:44:00,47.2,30.5,30.11,ESE,119,5.8,9.2,52,0.00,,,0.00,VWS V14.01,2013-02-18 03:44:00,
2013-02-17 21:59:00,46.9,30.7,30.10,SE,126,4.6,9.2,53,0.00,,,0.00,VWS V14.01,2013-02-18 03:59:00,
2013-02-17 22:14:00,46.6,30.4,30.10,South,174,3.4,9.2,53,0.00,,,0.00,VWS V14.01,2013-02-18 04:14:00,
2013-02-17 22:29:00,46.6,30.9,30.09,SE,132,1.1,11.5,54,0.00,,,0.00,VWS V14.01,2013-02-18 04:29:00,
2013-02-17 22:44:00,46.6,30.9,30.09,South,174,1.1,11.5,54,0.00,,,0.00,VWS V14.01,2013-02-18 04:44:00,
2013-02-17 22:59:00,46.5,30.8,30.09,ESE,108,9.2,11.5,54,0.00,,,0.00,VWS V14.01,2013-02-18 04:59:00,
2013-02-17 23:14:00,46.6,30.9,30.08,South,182,3.4,12.6,54,0.00,,,0.00,VWS V14.01,2013-02-18 05:14:00,
2013-02-17 23:29:00,46.7,31.4,30.08,SSW,198,2.3,11.5,55,0.00,,,0.00,VWS V14.01,2013-02-18 05:29:00,
2013-02-17 23:44:00,46.9,31.6,30.08,SSE,152,3.4,10.3,55,0.00,,,0.00,VWS V14.01,2013-02-18 05:44:00,
2013-02-17 23:59:00,47.1,31.8,30.08,South,176,5.8,11.5,55,0.00,,,0.00,VWS V14.01,2013-02-18 05:59:00,